Tracking 20232 objects as of 20-Jan-2020
HD Live streaming from Space Station
objects crossing your sky now

ARIANE 42P DEB

Track ARIANE 42P DEB now!
10-day predictions


NORAD ID: 44514
Int'l Code: 1992-052M
Perigee: 1,116.1 km
Apogee: 1,535.7 km
Inclination: 65.8 °
Period: 112.0 minutes
Semi major axis: 7696 km
RCS: Unknown
Launch date: August 10, 1992
Source: France (FR)
Launch site: FRENCH GUIANA (FRGUI)

Note: This is SATELLITE DEBRIS
aabbcc
Your satellite tracking list
Your tracking list is empty




NASA's NSSDC Master Catalog

Two Line Element Set (TLE):
1 44514U 92052M   19255.29105874  .00002441  00000-0  86618-2 0  9996
2 44514  65.7653   0.0609 0272584 309.4611  48.2572 12.85679697  3077
Source of the keplerian elements: AFSPC